Погода в Ананьино

Россия / Пермский край     56°36′38″N   56°04′02″E
темп.,
°C
ветер,
м/с
пор.,
м/с
влажн.,
%
обл.,
%
осадки,
мм/ч
давл.,
гПа
погр.,
м
18 апреля, вс
вс1823:00+5с22631 0.0 102317
02:00+4ссз22681 0.0 102110
05:00+3сз22735 0.0 102114
08:00+5ссз26713 0.0 1021172
11:00+8ссв676165 0.0 10211194
14:00+6ссв675377 0.0 10231469
17:00+8св683622 0.0 10241974
20:00+4всв712485 0.0 1027804
19 апреля, пн
пн1923:00+1всв712485 0.0 1030665
02:00−1всв612494 0.0 1031578
05:00−2всв511475 0.0 1033574
08:00−1в710370 0.0 10341032
11:00+2в78270 0.0 10341422
14:00+4в67260 0.0 10341712
17:00+5в56270 0.0 10331814
20:00+3всв35430 0.0 1034105
20 апреля, вт
вт2023:000в34500 0.0 103554
02:00−1вюв22540 0.0 103641
05:00−2юв11530 0.0 103710
08:00+1вюв11420 0.0 1038175
11:00+4вюв11325 0.0 1037905
14:00+7ссз11305 0.0 10361293
17:00+8сз22295 0.0 10351315
20:00+6сз22430 0.0 103412
21 апреля, ср
ср2123:00+3ссз11480 0.0 103510
02:00+2всв11530 0.0 103410
05:00+1в11560 0.0 103510
08:00+3ююв11520 0.0 1036111
11:00+8ююв22400 0.0 1035664
14:00+10ююв33355 0.0 10331163
17:00+12ююв34339 0.0 10321224
20:00+9ююв335084 0.0 103227
22 апреля, чт
чт2223:00+6ю225354 0.0 103313
02:00+4ююв225699 0.0 103319
05:00+3ююв3361100 0.0 103435
08:00+5ю4115628 0.0 1034406
11:00+10ю794198 0.0 1034886
14:00+12ю7933100 0.0 10341473
17:00+12ююз6936100 0.0 10331539
20:00+9ю3749100 0.0 1033140